CW9436 Weather Reports


Display with metric or nautical units.
time (UTC)temp
F
wind
direction
speed
MPH
gust
MPH
rain 1hr
in
rain 24hr
in
rain mn
in
humidity
%
barometer
mb
20260505233525 48 0 1.0 4.0 0.00 0.00 0.00 80 1015.9
20260505233042 48 52 2.0 4.0 0.00 0.00 0.00 80 1015.9
20260505232519 48 52 0.0 3.0 0.00 0.00 0.00 79 1015.9
20260505232021 48 52 1.0 3.0 0.00 0.00 0.00 79 1016.0
20260505231541 48 52 1.0 4.0 0.00 0.00 0.00 79 1016.0
20260505231020 48 52 1.0 7.0 0.00 0.00 0.00 79 1016.0
20260505230519 48 52 1.0 7.0 0.00 0.00 0.00 79 1016.0
20260505230043 49 52 3.0 7.0 0.00 0.00 0.00 78 1015.9
20260505225524 49 0 1.0 7.0 0.00 0.00 0.00 79 1016.0
20260505225021 49 52 2.0 7.0 0.00 0.00 0.00 78 1015.9
20260505224540 49 52 3.0 7.0 0.00 0.00 0.00 78 1015.9
20260505224019 49 52 3.0 7.0 0.00 0.00 0.00 78 1015.9
20260505223520 49 51 3.0 7.0 0.00 0.00 0.00 78 1015.9
20260505223042 49 52 3.0 7.0 0.00 0.00 0.00 78 1015.9
20260505222522 49 52 4.0 7.0 0.00 0.00 0.00 78 1015.9
20260505222020 49 52 3.0 9.0 0.00 0.00 0.00 78 1015.9
20260505221541 49 52 4.0 9.0 0.00 0.00 0.00 78 1015.9
20260505221021 49 49 4.0 10.0 0.00 0.00 0.00 78 1015.9
20260505220521 49 54 5.0 11.0 0.00 0.00 0.00 78 1015.8
20260505220055 49 52 5.0 11.0 0.00 0.00 0.00 79 1015.9
20260505215521 50 52 3.0 12.0 0.00 0.00 0.00 79 1015.9
20260505215021 50 54 4.0 12.0 0.00 0.00 0.00 79 1015.9
20260505214539 50 47 3.0 6.0 0.00 0.00 0.00 80 1015.9
20260505214021 50 47 2.0 8.0 0.00 0.00 0.00 80 1015.9
20260505213519 50 45 4.0 9.0 0.00 0.00 0.00 80 1015.8
20260505213043 50 39 3.0 9.0 0.00 0.00 0.00 80 1015.8
20260505212520 50 45 3.0 9.0 0.00 0.00 0.00 80 1015.7
20260505212018 50 40 2.0 7.0 0.00 0.00 0.00 80 1015.7
20260505211546 50 36 2.0 8.0 0.00 0.00 0.00 80 1015.6
20260505211021 50 59 3.0 10.0 0.00 0.00 0.00 80 1015.6
20260505210520 50 60 3.0 10.0 0.00 0.00 0.00 80 1015.6
20260505210040 51 38 3.0 8.0 0.00 0.00 0.00 80 1015.6
20260505205523 51 34 3.0 8.0 0.00 0.00 0.00 80 1015.6
20260505205022 51 12 1.0 6.0 0.00 0.00 0.00 80 1015.5
20260505204540 51 12 2.0 6.0 0.00 0.00 0.00 79 1015.5
20260505204021 51 11 3.0 6.0 0.00 0.00 0.00 79 1015.5
20260505203522 51 10 3.0 6.0 0.00 0.00 0.00 79 1015.5
20260505203037 51 10 3.0 6.0 0.00 0.00 0.00 78 1015.5
20260505202521 51 11 3.0 7.0 0.00 0.00 0.00 78 1015.6
20260505202020 51 11 3.0 7.0 0.00 0.00 0.00 78 1015.4
20260505201538 51 12 3.0 8.0 0.00 0.00 0.00 78 1015.4
20260505201021 51 12 3.0 8.0 0.00 0.00 0.00 78 1015.4
20260505200518 51 11 3.0 8.0 0.00 0.00 0.00 77 1015.4
20260505200035 51 11 2.0 8.0 0.00 0.00 0.00 77 1015.4
20260505195520 51 12 3.0 7.0 0.00 0.00 0.00 77 1015.3
20260505195021 51 13 3.0 9.0 0.00 0.00 0.00 77 1015.3
20260505194541 51 13 3.0 9.0 0.00 0.00 0.00 77 1015.2
20260505194021 51 15 3.0 8.0 0.00 0.00 0.00 77 1015.2
20260505193521 51 16 4.0 8.0 0.00 0.00 0.00 76 1015.1
20260505193046 51 16 4.0 9.0 0.00 0.00 0.00 76 1015.0
20260505192517 51 16 4.0 9.0 0.00 0.00 0.00 77 1015.0
20260505192021 52 16 4.0 9.0 0.00 0.00 0.00 76 1015.0
20260505191552 52 17 3.0 10.0 0.00 0.00 0.00 76 1015.0
20260505191027 52 18 4.0 10.0 0.00 0.00 0.00 76 1015.0
20260505190521 52 10 5.0 9.0 0.00 0.00 0.00 75 1015.0
20260505190038 52 13 3.0 9.0 0.00 0.00 0.00 76 1015.0
20260505185521 52 14 4.0 9.0 0.00 0.00 0.00 76 1015.0
20260505185022 52 11 5.0 9.0 0.00 0.00 0.00 76 1015.0
20260505184535 52 8 3.0 12.0 0.00 0.00 0.00 78 1014.9
20260505184022 53 6 5.0 15.0 0.00 0.00 0.00 77 1014.9
20260505183521 53 352 7.0 16.0 0.00 0.00 0.00 77 1014.7
20260505183042 53 3 6.0 16.0 0.00 0.00 0.00 75 1014.7
20260505182520 53 341 6.0 15.0 0.00 0.00 0.00 74 1014.7
20260505182021 54 6 5.0 14.0 0.00 0.00 0.00 73 1014.7
20260505181540 54 343 6.0 14.0 0.00 0.00 0.00 72 1014.7
20260505181022 54 345 5.0 15.0 0.00 0.00 0.00 71 1014.6
20260505180521 54 351 5.0 15.0 0.00 0.00 0.00 70 1014.7
20260505180052 55 334 8.0 15.0 0.00 0.00 0.00 67 1014.7
20260505175521 56 355 6.0 12.0 0.00 0.00 0.00 67 1014.7
20260505175022 56 358 4.0 15.0 0.00 0.00 0.00 66 1014.6
20260505174542 57 4 5.0 15.0 0.00 0.00 0.00 65 1014.7
20260505174021 56 2 6.0 14.0 0.00 0.00 0.00 65 1014.6
20260505173522 56 350 7.0 15.0 0.00 0.00 0.00 66 1014.7
20260505173045 56 15 5.0 15.0 0.00 0.00 0.00 71 1014.6
20260505172522 56 12 5.0 14.0 0.00 0.00 0.00 69 1014.6
20260505172021 56 344 7.0 13.0 0.00 0.00 0.00 67 1014.7
20260505171541 56 18 6.0 13.0 0.00 0.00 0.00 68 1014.7
20260505171020 55 10 6.0 12.0 0.00 0.00 0.00 70 1014.7
20260505170521 55 11 4.0 13.0 0.00 0.00 0.00 70 1014.7
20260505170055 55 10 7.0 13.0 0.00 0.00 0.00 69 1014.7
20260505165526 55 14 4.0 13.0 0.00 0.00 0.00 72 1014.7
20260505165021 55 341 7.0 13.0 0.00 0.00 0.00 72 1014.9
20260505164539 55 21 4.0 15.0 0.00 0.00 0.00 75 1014.7
20260505164021 56 27 4.0 15.0 0.00 0.00 0.00 73 1014.7
20260505163521 56 351 7.0 13.0 0.00 0.00 0.00 73 1014.8
20260505163040 56 18 6.0 12.0 0.00 0.00 0.00 73 1014.7
20260505162521 56 351 6.0 14.0 0.00 0.00 0.00 73 1014.8
20260505162018 57 14 7.0 14.0 0.00 0.00 0.00 73 1014.8
20260505161534 57 345 7.0 14.0 0.00 0.00 0.00 72 1014.8
20260505161020 56 357 5.0 15.0 0.00 0.00 0.00 74 1014.7
20260505160519 56 360 4.0 15.0 0.00 0.00 0.00 75 1014.8
20260505153052 54 8 5.0 12.0 0.00 0.00 0.00 77 1014.9
20260505152522 54 11 5.0 12.0 0.00 0.00 0.00 77 1014.9
20260505152021 53 5 4.0 13.0 0.00 0.00 0.00 77 1014.9
20260505151542 53 6 4.0 15.0 0.00 0.00 0.00 77 1015.0
20260505151021 53 11 8.0 15.0 0.00 0.00 0.00 76 1015.1
20260505150521 54 329 6.0 15.0 0.00 0.00 0.00 76 1015.1
20260505140521 58 12 6.0 16.0 0.00 0.00 0.00 68 1015.1
20260505125023 55 335 10.0 15.0 0.00 0.00 0.00 73 1015.1
20260505124547 56 8 7.0 20.0 0.00 0.00 0.00 70 1015.0
20260505124021 57 22 8.0 22.0 0.00 0.00 0.00 69 1014.9
20260505123520 58 8 8.0 22.0 0.00 0.00 0.00 68 1015.0
20260505123102 59 14 7.0 17.0 0.00 0.00 0.00 65 1015.0
20260505122522 59 15 7.0 16.0 0.00 0.00 0.00 66 1015.0
20260505122019 58 20 8.0 16.0 0.00 0.00 0.00 68 1015.0
20260505121542 58 358 8.0 15.0 0.00 0.00 0.00 67 1015.0
20260505121022 57 12 6.0 14.0 0.00 0.00 0.00 70 1015.1
20260505120526 56 6 7.0 14.0 0.00 0.00 0.00 72 1015.1
20260505120045 56 26 5.0 15.0 0.00 0.00 0.00 72 1015.1
20260505115521 56 11 6.0 15.0 0.00 0.00 0.00 73 1015.2
20260505115021 56 16 7.0 15.0 0.00 0.00 0.00 72 1015.2
20260505114603 56 356 5.0 14.0 0.00 0.00 0.00 73 1015.2
20260505114021 55 340 7.0 14.0 0.00 0.00 0.00 73 1015.2
20260505113521 54 359 6.0 12.0 0.00 0.00 0.00 76 1015.3
20260505113039 53 4 6.0 15.0 0.00 0.00 0.00 75 1015.4
20260505112520 53 22 7.0 15.0 0.00 0.00 0.00 74 1015.5
20260505112021 53 1 6.0 14.0 0.00 0.00 0.00 76 1015.5
20260505111556 52 16 6.0 14.0 0.00 0.00 0.00 76 1015.6
20260505111019 52 360 7.0 13.0 0.00 0.00 0.00 77 1015.5
20260505110519 53 25 7.0 12.0 0.00 0.00 0.00 78 1015.6
20260505102022 54 18 5.0 12.0 0.00 0.00 0.00 77 1015.4
20260505101536 54 4 5.0 13.0 0.00 0.00 0.00 77 1015.6
20260505101020 53 354 7.0 14.0 0.00 0.00 0.00 77 1015.5
20260505100521 53 345 6.0 14.0 0.00 0.00 0.00 77 1015.5
20260505100036 53 341 5.0 14.0 0.00 0.00 0.00 78 1015.6
20260505095519 53 355 7.0 14.0 0.00 0.00 0.00 78 1015.6
20260505095018 53 349 8.0 15.0 0.00 0.00 0.00 79 1015.6
20260505094546 53 360 6.0 15.0 0.00 0.00 0.00 80 1015.6
20260505094022 53 339 6.0 15.0 0.00 0.00 0.00 79 1015.7
20260505093519 53 3 5.0 14.0 0.00 0.00 0.00 81 1015.7
20260505093040 53 353 7.0 14.0 0.00 0.00 0.00 80 1015.6
20260505092520 53 2 6.0 12.0 0.00 0.00 0.00 82 1015.6
20260505092021 53 20 5.0 13.0 0.00 0.00 0.00 82 1015.7
20260505091541 53 353 5.0 13.0 0.00 0.00 0.00 83 1015.6
20260505091023 52 18 5.0 12.0 0.00 0.00 0.00 84 1015.6
20260505090523 52 345 7.0 12.0 0.00 0.00 0.00 83 1015.7
20260505090048 53 9 3.0 11.0 0.00 0.00 0.00 85 1015.7
20260505085519 53 335 4.0 14.0 0.00 0.00 0.00 86 1015.7
20260505085019 52 358 5.0 14.0 0.00 0.00 0.00 86 1015.6
20260505084537 52 10 3.0 8.0 0.00 0.00 0.00 87 1015.6
20260505084018 52 10 2.0 9.0 0.00 0.00 0.00 87 1015.7
20260505083518 52 10 3.0 11.0 0.00 0.00 0.00 88 1015.6
20260505083044 52 16 5.0 11.0 0.00 0.00 0.00 88 1015.7
20260505082518 51 2 3.0 11.0 0.00 0.00 0.00 88 1015.7
20260505082019 51 14 4.0 9.0 0.00 0.00 0.00 88 1015.7
20260505081548 51 22 3.0 8.0 0.00 0.00 0.00 87 1015.7
20260505081026 51 10 3.0 9.0 0.00 0.00 0.00 86 1015.7
20260505080518 50 16 3.0 9.0 0.00 0.00 0.00 86 1015.7
20260505080042 50 352 3.0 11.0 0.00 0.00 0.00 87 1015.7
20260505075521 50 352 4.0 11.0 0.00 0.00 0.00 87 1015.6
20260505075021 50 17 4.0 9.0 0.00 0.00 0.00 89 1015.7
20260505074544 50 16 3.0 8.0 0.00 0.00 0.00 91 1015.7
20260505074019 50 19 2.0 7.0 0.00 0.00 0.00 91 1015.8
20260505073518 50 10 4.0 7.0 0.00 0.00 0.00 92 1015.7
20260505073038 50 8 1.0 6.0 0.00 0.00 0.00 92 1015.7
20260505072519 50 8 2.0 6.0 0.00 0.00 0.00 93 1015.8
20260505072019 49 8 2.0 6.0 0.00 0.00 0.00 93 1015.7
20260505071541 49 8 1.0 7.0 0.00 0.00 0.00 94 1015.7
20260505071019 49 8 2.0 7.0 0.00 0.00 0.00 94 1015.7
20260505070521 49 9 2.0 6.0 0.00 0.00 0.00 95 1015.7
20260505070044 48 9 2.0 6.0 0.00 0.00 0.00 95 1015.6
20260505065518 48 9 1.0 6.0 0.00 0.00 0.00 96 1015.7
20260505065018 47 9 3.0 6.0 0.00 0.00 0.00 96 1015.8
20260505064554 47 310 1.0 3.0 0.00 0.00 0.00 96 1015.7
20260505064021 47 281 0.0 3.0 0.00 0.00 0.00 97 1015.7
20260505063520 46 278 0.0 3.0 0.00 0.00 0.00 97 1015.8
20260505063049 46 0 0.0 2.0 0.00 0.00 0.00 97 1015.9
20260505062519 45 275 0.0 2.0 0.00 0.00 0.00 97 1015.9
20260505062019 45 0 0.0 2.0 0.00 0.00 0.00 97 1015.9
20260505061542 44 0 1.0 2.0 0.00 0.00 0.00 97 1015.8
20260505061019 44 0 0.0 2.0 0.00 0.00 0.00 97 1015.8
20260505060519 43 271 0.0 2.0 0.00 0.00 0.00 97 1015.8
20260505060036 43 0 0.0 2.0 0.00 0.00 0.00 97 1015.8
20260505055520 42 0 0.0 2.0 0.00 0.00 0.00 97 1015.8
20260505055020 42 237 0.0 2.0 0.00 0.00 0.00 97 1015.8
20260505054535 41 0 0.0 2.0 0.00 0.00 0.00 97 1015.8
20260505054021 41 0 0.0 2.0 0.00 0.00 0.00 96 1015.8
20260505053520 40 0 0.0 1.0 0.00 0.00 0.00 96 1015.8
20260505053034 40 0 0.0 1.0 0.00 0.00 0.00 95 1015.8
20260505052518 40 0 0.0 0.0 0.00 0.00 0.00 95 1015.8
20260505052018 40 0 0.0 1.0 0.00 0.00 0.00 95 1015.8
20260505051542 40 0 0.0 1.0 0.00 0.00 0.00 94 1015.8
20260505051022 40 124 0.0 2.0 0.00 0.00 0.00 94 1015.7
20260505050523 40 0 0.0 2.0 0.00 0.00 0.00 94 1015.7
20260505041558 41 0 0.0 2.0 0.00 0.00 0.00 94 1015.5
20260505041019 41 0 0.0 2.0 0.00 0.00 0.00 94 1015.5
20260505040518 41 0 0.0 2.0 0.00 0.00 0.00 94 1015.5
20260505040045 41 14 0.0 2.0 0.00 0.00 0.00 94 1015.4
20260505035521 41 0 1.0 3.0 0.00 0.00 0.00 94 1015.5
20260505035021 41 14 1.0 3.0 0.00 0.00 0.00 94 1015.5
20260505034544 41 14 1.0 3.0 0.00 0.00 0.00 94 1015.4
20260505034021 41 14 1.0 4.0 0.00 0.00 0.00 94 1015.4
20260505033522 41 0 0.0 4.0 0.00 0.00 0.00 94 1015.4
20260505033037 41 14 2.0 4.0 0.00 0.00 0.00 94 1015.4
20260505032520 41 14 1.0 4.0 0.00 0.00 0.00 94 1015.4
20260505032021 41 14 1.0 4.0 0.00 0.00 0.00 94 1015.3
20260505031535 41 14 1.0 4.0 0.00 0.00 0.00 94 1015.4
20260505031018 41 14 1.0 3.0 0.00 0.00 0.00 93 1015.3
20260505030520 41 14 1.0 3.0 0.00 0.00 0.00 93 1015.3
20260505030042 41 14 1.0 3.0 0.00 0.00 0.00 93 1015.4
20260505025518 41 0 1.0 3.0 0.00 0.00 0.00 93 1015.3
20260505025021 42 14 0.0 2.0 0.00 0.00 0.00 93 1015.4
20260505024546 42 0 0.0 2.0 0.00 0.00 0.00 93 1015.4
20260505024020 42 0 0.0 2.0 0.00 0.00 0.00 93 1015.5
20260505023521 42 0 0.0 2.0 0.00 0.00 0.00 93 1015.5
20260505023046 42 0 0.0 1.0 0.00 0.00 0.00 93 1015.6
20260505022523 42 0 0.0 2.0 0.00 0.00 0.00 93 1015.6
20260505022021 42 0 0.0 2.0 0.00 0.00 0.00 93 1015.6
20260505021544 43 0 0.0 2.0 0.00 0.00 0.00 93 1015.6
20260505021018 43 0 0.0 2.0 0.00 0.00 0.00 93 1015.7
20260505020520 43 0 0.0 2.0 0.00 0.00 0.00 93 1015.7
20260505020036 43 0 0.0 0.0 0.00 0.00 0.00 93 1015.7
20260505015521 43 0 0.0 0.0 0.00 0.00 0.00 92 1015.8
20260505015021 43 0 0.0 0.0 0.00 0.00 0.00 92 1015.8
20260505014545 44 0 0.0 0.0 0.00 0.00 0.00 92 1015.8
20260505014021 44 0 0.0 0.0 0.00 0.00 0.00 92 1015.9
20260505013521 44 0 0.0 0.0 0.00 0.00 0.00 92 1015.9
20260505013041 44 0 0.0 1.0 0.00 0.00 0.00 92 1016.0
20260505012521 44 0 0.0 1.0 0.00 0.00 0.00 92 1016.0
20260505012022 45 14 0.0 1.0 0.00 0.00 0.00 92 1016.1
20260505011542 45 0 0.0 1.0 0.00 0.00 0.00 92 1016.2
20260505011019 45 0 0.0 1.0 0.00 0.00 0.00 92 1016.1
20260505010519 45 0 0.0 1.0 0.00 0.00 0.00 91 1016.1
20260505010044 45 0 0.0 2.0 0.00 0.00 0.00 92 1016.1
20260505005521 46 0 0.0 2.0 0.00 0.00 0.00 92 1016.1
20260505005024 46 0 0.0 2.0 0.00 0.00 0.00 91 1016.1
20260505004536 46 0 0.0 2.0 0.00 0.00 0.00 92 1016.1
20260505004017 46 0 0.0 2.0 0.00 0.00 0.00 92 1016.1
20260505003519 46 0 0.0 2.0 0.00 0.00 0.00 92 1016.1
20260505003041 47 0 0.0 2.0 0.00 0.00 0.00 92 1016.1
20260505002524 47 0 0.0 0.0 0.00 0.00 0.00 92 1016.1
20260505002021 47 0 0.0 0.0 0.00 0.00 0.00 92 1016.1
20260505001549 47 0 0.0 0.0 0.00 0.00 0.00 92 1016.2
20260505001019 47 0 0.0 0.0 0.00 0.00 0.00 92 1016.1
20260505000521 47 0 0.0 0.0 0.00 0.00 0.00 92 1016.2
20260505000049 47 0 0.0 0.0 0.00 0.00 0.00 92 1016.3
20260504235519 47 0 0.0 0.0 0.00 0.00 0.00 92 1016.3
20260504235019 47 0 0.0 0.0 0.00 0.00 0.00 92 1016.3
20260504234546 47 0 0.0 0.0 0.00 0.00 0.00 92 1016.4
20260504234020 47 0 0.0 0.0 0.00 0.00 0.00 92 1016.4